Location: Chippewa Lake
(41.0698°N, 81.9010°W)
Time: 02:17:53
(UTC+00:00)

Cosmos 2016 Rocket - Pass Details

Date: 09 May 2021
Orbit: 946 x 1001 km, 83.0° (Epoch: 24 June)

Event Time Altitude Azimuth Distance (km) Brightness Sun altitude
Rises 08:13:40 0° 349° (NNW) 3,701 7.5 -19.5°
Reaches altitude 10° 08:16:14 10° 346° (NNW) 2,741 6.8 -19.2°
Maximum altitude 08:22:23 61° 268° (W) 1,092 4.0 -18.4°
Enters shadow 08:26:15 23° 195° (SSW) 1,911 5.0 -17.9°
